This is the latest recevied weather packets stored in our database for station/object WW4HG. If no packets are shown the sender has not sent any weather packets the latest 10 day(s).
| Time | Temp. | Humidity | Pressure | Rain* | Wind** | Luminosity | Snow |
|---|---|---|---|---|---|---|---|
| 1778199404 | 21.11° C | 77% | 1010.2 hPa | 0 mm | - | 1 W/m² | - |
| 1778199100 | 21.11° C | 77% | 1010.2 hPa | 0 mm | - | 1 W/m² | - |
| 1778198796 | 21.11° C | 77% | 1010.6 hPa | 0 mm | - | 3 W/m² | - |
| 1778198494 | 21.11° C | 77% | 1010.2 hPa | 0 mm | - | 4 W/m² | - |
| 1778198191 | 21.67° C | 76% | 1009.9 hPa | 0 mm | - | 6 W/m² | - |
| 1778197888 | 21.67° C | 76% | 1010.2 hPa | 0 mm | - | 8 W/m² | - |
| 1778197585 | 21.67° C | 75% | 1010.2 hPa | 0 mm | - | 10 W/m² | - |
| 1778197281 | 21.67° C | 75% | 1010.2 hPa | 0 mm | - | 12 W/m² | - |
| 1778196978 | 21.67° C | 75% | 1010.2 hPa | 0 mm | - | 14 W/m² | - |
| 1778196677 | 21.67° C | 75% | 1009.9 hPa | 0 mm | - | 14 W/m² | - |
| 1778196373 | 21.67° C | 75% | 1009.9 hPa | 0 mm | - | 16 W/m² | - |
| 1778196070 | 21.67° C | 75% | 1010.2 hPa | 0 mm | - | 18 W/m² | - |
| 1778195766 | 21.67° C | 75% | 1009.9 hPa | 0 mm | - | 19 W/m² | - |
| 1778195463 | 21.67° C | 75% | 1009.6 hPa | 0 mm | - | 21 W/m² | - |
| 1778195160 | 21.67° C | 75% | 1009.9 hPa | 0 mm | - | 22 W/m² | - |
| 1778194856 | 21.67° C | 75% | 1009.9 hPa | 0 mm | - | 23 W/m² | - |
| 1778194551 | 21.67° C | 75% | 1010.2 hPa | 0 mm | - | 25 W/m² | - |
| 1778194248 | 21.67° C | 75% | 1009.9 hPa | 0 mm | - | 26 W/m² | - |
| 1778193944 | 21.67° C | 75% | 1010.2 hPa | 0 mm | - | 28 W/m² | - |
| 1778193641 | 21.67° C | 75% | 1010.2 hPa | 0 mm | - | 30 W/m² | - |
| 1778193337 | 21.67° C | 74% | 1010.2 hPa | 0 mm | - | 60 W/m² | - |
| 1778193034 | 21.67° C | 74% | 1010.2 hPa | 0 mm | - | 61 W/m² | - |
| 1778192731 | 21.67° C | 74% | 1010.6 hPa | 0 mm | - | 33 W/m² | - |
| 1778192427 | 21.67° C | 74% | 1010.2 hPa | 0 mm | - | 20 W/m² | - |
| 1778192124 | 21.67° C | 74% | 1010.2 hPa | 0 mm | - | 22 W/m² | - |
* Rain latest hour (hover to see other rain measurements)
** Current wind speed in m/s (hover to see current wind gust speed)